Regional Weather Roundup
Issued by NWS Albany, NY

Home | Current Version | Previous Version | Text Only | Print | Product List | Glossary On
Versions: 1 2 3 4 5 6 7 8 9 10 11 12 13 14 15 16 17 18 19 20 21 22 23 24 25 26 27
000
ASUS41 KALY 020210
RWRALY

NEW YORK STATE HOURLY WEATHER ROUNDUP
NATIONAL WEATHER SERVICE ALBANY NY
900 PM EST THU DEC 01 2016

NOTE: "FAIR" INDICATES FEW OR NO CLOUDS BELOW 12,000 FEET WITH NO
SIGNIFICANT WEATHER AND/OR NO OBSTRUCTIONS TO VISIBILITY.

NYZ032-033-038>043-046>054-057>066-NYZ062>081-082-084-020300-
EAST


CITY           SKY/WX    TMP DP  RH WIND       PRES   REMARKS
ALBANY         MOCLDY    40  30  67 W9        29.73R WCI  34
GLENS FALLS    CLOUDY    43  31  62 SW6       29.68R
POUGHKEEPSIE   PTCLDY    41  29  62 W12       29.77R
NEWBURGH       CLEAR     41  32  70 W12       29.78S
MONTGOMERY     CLOUDY    43  28  55 W10       29.77R
WHITE PLAINS   CLEAR     44  27  51 W12       29.77R
ISLIP          PTCLDY    45  30  55 W12       29.77R
NEW YORK CITY  PTCLDY    48  27  44 W16G28    29.81R
CENTRAL PARK   CLEAR     45  27  49 MISG      29.83R
$$

NYZ005>009-017-018-044>046-055-056-020300-
CENTRAL


CITY           SKY/WX    TMP DP  RH WIND       PRES   REMARKS
FULTON         CLOUDY    40  33  76 SW13      29.73R WCI  32
SYRACUSE       MOCLDY    39  32  76 SW13      29.73S WCI  31
ROME           CLOUDY    40  33  76 W14       29.74R WCI  32
ELMIRA         CLOUDY    40  29  64 W12       29.78R WCI  33
BINGHAMTON     CLOUDY    35  28  75 W14       29.74S WCI  26
MONTICELLO     CLOUDY    37  27  65 W10       29.76S WCI  30
$$

NYZ026>034-041>043-087-020300-
NORTH


CITY           SKY/WX    TMP DP  RH WIND       PRES   REMARKS
WATERTOWN      CLOUDY    43  35  73 W22G28    29.67S
FORT DRUM      NOT AVBL
OGDENSBURG     FAIR      41  37  83 SW10G16   29.62R
MASSENA        CLOUDY    41  35  79 SW14      29.62R
SARANAC LAKE   CLOUDY    35  32  88 W10       29.58R WCI  27
PLATTSBURGH    CLOUDY    42  33  70 VRB7G20   29.59R
$$

NYZ001>004-010>016-019>021-085-020300-
WEST


CITY           SKY/WX    TMP DP  RH WIND       PRES   REMARKS
NIAGARA FALLS  CLOUDY    43  32  65 SW15      29.74F
BUFFALO        MOCLDY    42  33  70 W14       29.76R
DUNKIRK        MIX PCPN  37  34  89 SW14G28   29.80S WCI  28
JAMESTOWN      CLOUDY    34  28  80 SW14      29.78S WCI  24
WELLSVILLE     CLOUDY    34  29  82 W13G22    29.76S WCI  25
ROCHESTER      MOCLDY    40  34  79 SW13      29.75S WCI  32
PENN YAN       CLOUDY    38  32  79 SW8       29.77R WCI  32
$$

             KEY
       WCI = WIND CHILL INDEX
       VSB = VISIBILITY
       HX  = HEAT INDEX
$$




USA.gov is the U.S. government's official web portal to all federal, state and local government web resources and services.